Regional Weather Roundup
Issued by NWS

Home | Current Version | Previous Version | Graphics & Text | Print | Product List | Glossary On
Versions: 1 2 3 4 5 6 7 8 9 10 11 12 13 14 15 16 17 18 19 20 21 22 23 24 25 26 27 28 29 30 31 32 33 34 35 36 37 38 39 40 41 42 43 44 45 46 47 48 49 50
258
ASUS43 KDMX 260706
RWRIA

WEATHER ROUNDUP FOR IOWA
NATIONAL WEATHER SERVICE DES MOINES IA
200 AM CDT SAT MAY 26 2018

NOTE: "FAIR" INDICATES FEW OR NO CLOUDS BELOW 12,000 FEET WITH NO
SIGNIFICANT WEATHER AND/OR OBSTRUCTIONS TO VISIBILITY.

* - THESE STATIONS ARE NOT NWS STATIONS...THUS NOT UNDER NWS
QUALITY CONTROL.  THEY ALSO DO NOT REPORT WEATHER SUCH
AS PRECIPITATION OR FOG.

IAZ001>003-012>014-020>022-031>034-043>046-260800-
   NORTHWEST IOWA

CITY           SKY/WX    TMP DP  RH WIND       PRES   REMARKS
CARROLL *      CLEAR     66  57  72 CALM      29.74F
CHEROKEE *     CLEAR     64  60  86 CALM      29.76S
DENISON *      CLEAR     68  59  73 CALM      29.77S
LE MARS *      CLEAR     70  57  64 CALM      29.76S
ORANGE CITY *  CLEAR     70  55  60 CALM      29.77S
SHELDON *      CLEAR     66  55  68 S7        29.76R
SIOUX CITY     CLEAR     68  57  68 CALM      29.75S
SPENCER        CLEAR     66  58  75 CALM      29.76S
STORM LAKE *   CLEAR     70  57  64 S7        29.76F
$$

IAZ055>058-069>071-079>083-090>094-260800-
   SOUTHWEST IOWA

CITY           SKY/WX    TMP DP  RH WIND       PRES   REMARKS
ATLANTIC *     CLEAR     70  63  78 CALM      29.75S
AUDUBON *      CLEAR     64  61  88 CALM      29.76F
CLARINDA *       N/A     72  63  73 S6        29.77F
COUNCIL BLFS * CLEAR     70  68  94 SW7       29.75S
CRESTON *      CLOUDY    77  64  65 SW13      29.77F
HARLAN  *      CLEAR     70  61  73 CALM      29.78F
LAMONI         PTCLDY    71  65  81 S9        29.77F
RED OAK *      CLOUDY    72  63  73 S5        29.75S
SHENANDOAH *   PTCLDY    73  63  68 SW8       29.76S
$$

IAZ047>049-059>061-072>074-084-260800-
   CENTRAL IOWA

CITY           SKY/WX    TMP DP  RH WIND       PRES   REMARKS
AMES           CLEAR     68  65  90 E5        29.74S
ANKENY *       CLEAR     73  66  78 S5        29.74F
BOONE *        CLEAR     68  66  94 CALM      29.74S
CHARITON *     CLEAR     73  64  73 SW9       29.76R
DES MOINES     PTCLDY    74  66  76 SW5       29.73S
GRINNELL*      MOCLDY    71  66  85 E10       29.79S
KNOXVILLE *    CLEAR     70  66  88 S10       29.74S
MARSHALLTOWN   CLEAR     68  65  90 SE15      29.76F
NEWTON *       PTCLDY    70  66  88 E9        29.76S
PELLA *        CLEAR     71  65  83 S6        29.76F
PERRY *        FAIR      71  64  79 W5        29.74S
$$

IAZ004>006-015-016-023>025-035-036-260800-
   NORTH CENTRAL IOWA

CITY           SKY/WX    TMP DP  RH WIND       PRES   REMARKS
ALGONA *       CLEAR     66  63  88 S6        29.74F
CLARION *      CLEAR     70  63  78 SE13      29.74F
ESTHERVILLE    CLEAR     65  61  87 SW7       29.75F
FORT DODGE *   CLEAR     66  62  87 CALM      29.74F
MASON CITY     CLEAR     65  63  93 SE7       29.76F
FOREST CITY *  FAIR      64  63  94 CALM      29.75F
WEBSTER CITY * CLEAR     72  64  78 SE10      29.72F
IOWA FALLS *   FAIR      69  65  87 SE10      29.77S
$$

IAZ007>011-017>019-026>030-037>042-050>054-066-260800-
   NORTHEAST IOWA

CITY           SKY/WX    TMP DP  RH WIND       PRES   REMARKS
CEDAR RAPIDS   TSTM      63  63 100 VRB7      29.83F FOG
CHARLES CITY * FAIR      64  61  88 SE8       29.76F
CLINTON *      FAIR      65  62  90 SW9       29.79R
DECORAH *      CLOUDY    63  63 100 S6        29.74S
DUBUQUE        FAIR      63  60  90 SW13      29.76F
MONTICELLO *   FAIR      66  63  88 E8        29.77F
OELWEIN *      CLOUDY    64  63  94 S12       29.78S
WATERLOO       FAIR      66  64  93 SE10      29.75F
$$

IAZ064-065-067-068-078-260800-
   EAST CENTRAL IOWA

CITY           SKY/WX    TMP DP  RH WIND       PRES   REMARKS
DAVENPORT      MOCLDY    65  62  90 NW12      29.83R
IOWA CITY      TSTM      64  60  87 N22G43    29.86R FOG
MT. PLEASANT * CLOUDY    68  64  88 S5        29.78S
MUSCATINE *    FAIR      68  61  77 N15       29.82R
QUAD CITIES    FAIR      66  63  90 N7        29.80R
$$

IAZ062-063-075>077-085>089-095>099-260800-
   SOUTHEAST IOWA

CITY           SKY/WX    TMP DP  RH WIND       PRES   REMARKS
BURLINGTON     CLOUDY    68  66  93 S6        29.77F
FAIRFIELD *    CLOUDY    70  68  94 SE6       29.77R
FORT MADISON * PTCLDY    70  68  94 S3        29.79F
KEOKUK *       CLEAR     70  66  88 CALM      29.77F
OSKALOOSA *    FAIR      70  67  89 S9        29.77S
CENTERVILLE *  FAIR      68  68 100 CALM      29.79F
OTTUMWA        PTCLDY    71  68  90 S7        29.76S
WASHINGTON *   PTCLDY    70  68  94 E7        29.80R
$$

ABBREVIATIONS USED IN REMARKS
   TC - TEMPERATURES IN CELSIUS
  WCI - WIND CHILL INDEX
   HX - HEAT INDEX
  VSB - VISIBILITY
$$





USA.gov is the U.S. government's official web portal to all federal, state and local government web resources and services.